Location: Unspecified
(0.0000°N, 0.0000°E)
Time: 01:19:49
(UTC+00:00)

O/OREOS (USA 219) - Pass Details

Date: 17 July 2024
Orbit: 583 x 603 km, 72.0° (Epoch: 24 June)

Event Time Altitude Azimuth Distance (km) Brightness Sun altitude
Rises 19:15:37 0° 210° (SSW) 2,806 ? -16.2°
Reaches altitude 10° 19:18:00 10° 219° (SW) 1,906 ? -16.7°
Maximum altitude 19:21:51 34° 285° (WNW) 980 ? -17.6°
Drops below altitude 10° 19:25:43 10° 350° (N) 1,910 ? -18.5°
Sets 19:28:06 0° 359° (N) 2,812 ? -19.0°
